Satellite: NOAA-11 Catalog number: 19531 Epoch time: 12180.38802658 Element set: 972 Inclination: 098.7315 deg RA of node: 265.3115 deg Eccentricity: 0.0010845 Arg of perigee: 188.1641 deg Mean anomaly: 171.9375 deg Mean motion: 14.14970707 rev/day Decay rate: -2.32e-06 rev/day^2 Epoch rev: 22609 Checksum: 304
Satellite: NOAA-12 Catalog number: 21263 Epoch time: 12179.92691770 Element set: 0469 Inclination: 098.7286 deg RA of node: 201.5416 deg Eccentricity: 0.0013893 Arg of perigee: 166.3394 deg Mean anomaly: 193.8164 deg Mean motion: 14.25503169 rev/day Decay rate: 3.0e-08 rev/day^2 Epoch rev: 09808 Checksum: 320
Satellite: MET-3/5 Catalog number: 21655 Epoch time: 12179.78447370 Element set: 0001 Inclination: 082.5569 deg RA of node: 144.7018 deg Eccentricity: 0.0012123 Arg of perigee: 298.2990 deg Mean anomaly: 061.6908 deg Mean motion: 13.17034715 rev/day Decay rate: 3.78e-06 rev/day^2 Epoch rev: 00304 Checksum: 293
Satellite: MET-2/21 Catalog number: 22782 Epoch time: 12179.71383151 Element set: 0457 Inclination: 082.5466 deg RA of node: 024.1604 deg Eccentricity: 0.0023841 Arg of perigee: 121.0052 deg Mean anomaly: 239.3454 deg Mean motion: 13.83684258 rev/day Decay rate: -8.0e-08 rev/day^2 Epoch rev: 95062 Checksum: 289
Satellite: OKEAN-4 Catalog number: 23317 Epoch time: 12179.95617072 Element set: 0959 Inclination: 082.5396 deg RA of node: 021.1376 deg Eccentricity: 0.0020472 Arg of perigee: 320.9640 deg Mean anomaly: 039.0096 deg Mean motion: 14.83820591 rev/day Decay rate: 3.05e-06 rev/day^2 Epoch rev: 95640 Checksum: 302
Satellite: NOAA-14 Catalog number: 23455 Epoch time: 12179.94488824 Element set: 0951 Inclination: 098.8274 deg RA of node: 263.3089 deg Eccentricity: 0.0008706 Arg of perigee: 293.0376 deg Mean anomaly: 066.9874 deg Mean motion: 14.13904971 rev/day Decay rate: -5.2e-07 rev/day^2 Epoch rev: 90231 Checksum: 339
Satellite: NOAA-15 Catalog number: 25338 Epoch time: 12179.86928436 Element set: 0314 Inclination: 098.6907 deg RA of node: 166.6760 deg Eccentricity: 0.0011683 Arg of perigee: 078.3716 deg Mean anomaly: 281.8785 deg Mean motion: 14.25086288 rev/day Decay rate: 7.0e-07 rev/day^2 Epoch rev: 73437 Checksum: 348
Satellite: RESURS Catalog number: 25394 Epoch time: 12180.43100994 Element set: 122 Inclination: 098.3195 deg RA of node: 168.0757 deg Eccentricity: 0.0001027 Arg of perigee: 159.6428 deg Mean anomaly: 200.4801 deg Mean motion: 14.24289769 rev/day Decay rate: -3.4e-07 rev/day^2 Epoch rev: 72600 Checksum: 284
Satellite: FENGYUN1 Catalog number: 25730 Epoch time: 12180.50042908 Element set: 637 Inclination: 098.8467 deg RA of node: 139.2843 deg Eccentricity: 0.0019548 Arg of perigee: 335.4205 deg Mean anomaly: 024.6031 deg Mean motion: 14.09628211 rev/day Decay rate: 9.02e-06 rev/day^2 Epoch rev: 67620 Checksum: 286
Satellite: OKEAN-0 Catalog number: 25860 Epoch time: 12179.91673767 Element set: 0673 Inclination: 097.9366 deg RA of node: 142.3404 deg Eccentricity: 0.0000872 Arg of perigee: 108.4132 deg Mean anomaly: 251.7172 deg Mean motion: 14.74226442 rev/day Decay rate: 1.96e-06 rev/day^2 Epoch rev: 69615 Checksum: 311
Satellite: NOAA-16 Catalog number: 26536 Epoch time: 12179.87325121 Element set: 0799 Inclination: 099.0931 deg RA of node: 222.1609 deg Eccentricity: 0.0011157 Arg of perigee: 057.2595 deg Mean anomaly: 302.9616 deg Mean motion: 14.12753991 rev/day Decay rate: 2.36e-06 rev/day^2 Epoch rev: 60654 Checksum: 315
Satellite: NOAA-17 Catalog number: 27453 Epoch time: 12179.76980766 Element set: 0752 Inclination: 098.3345 deg RA of node: 206.2716 deg Eccentricity: 0.0012577 Arg of perigee: 122.7081 deg Mean anomaly: 237.5304 deg Mean motion: 14.24449813 rev/day Decay rate: -1.1e-07 rev/day^2 Epoch rev: 52026 Checksum: 304
Satellite: NOAA-18 Catalog number: 28654 Epoch time: 12179.76823568 Element set: 0230 Inclination: 099.0465 deg RA of node: 137.9440 deg Eccentricity: 0.0014933 Arg of perigee: 122.3144 deg Mean anomaly: 237.9476 deg Mean motion: 14.11666288 rev/day Decay rate: -1.0e-08 rev/day^2 Epoch rev: 36605 Checksum: 317
Satellite: NOAA-19 Catalog number: 33591 Epoch time: 12179.77845785 Element set: 0422 Inclination: 098.8639 deg RA of node: 119.4361 deg Eccentricity: 0.0014325 Arg of perigee: 355.7090 deg Mean anomaly: 004.3963 deg Mean motion: 14.11352719 rev/day Decay rate: -7.0e-07 rev/day^2 Epoch rev: 17450 Checksum: 317
/EX SB KEPS @ AMSAT $ORB12180.M Orbital Elements 12180.MISC
HR AMSAT ORBITAL ELEMENTS FOR MANNED AND MISCELLANEOUS SATELLITES FROM WA5QGD FORT WORTH,TX June 28, 2012 Send SUBSCRIBE KEPS/UNSUBSCRIBE KEPS to [email protected] only BID: ORB12180.M TO ALL RADIO AMATEURS BT
Satellite: HUBBLE Catalog number: 20580 Epoch time: 12179.15382168 Element set: 25 Inclination: 028.4684 deg RA of node: 078.3233 deg Eccentricity: 0.0003142 Arg of perigee: 151.0542 deg Mean anomaly: 209.0221 deg Mean motion: 15.02575545 rev/day Decay rate: 6.66e-06 rev/day^2 Epoch rev: 1623 Checksum: 256
Satellite: ISS Catalog number: 25544 Epoch time: 12180.89865916 Element set: 830 Inclination: 051.6400 deg RA of node: 063.8440 deg Eccentricity: 0.0008358 Arg of perigee: 100.3910 deg Mean anomaly: 009.0971 deg Mean motion: 15.55839748 rev/day Decay rate: 8.912e-05 rev/day^2 Epoch rev: 77983 Checksum: 317
Satellite: CO-58 Catalog number: 28895 Epoch time: 12179.56411465 Element set: 211 Inclination: 097.9108 deg RA of node: 045.3800 deg Eccentricity: 0.0019172 Arg of perigee: 117.6708 deg Mean anomaly: 242.6472 deg Mean motion: 14.60656053 rev/day Decay rate: 3.66e-06 rev/day^2 Epoch rev: 35517 Checksum: 314
Satellite: FALCON Catalog number: 30776 Epoch time: 12179.52036952 Element set: 377 Inclination: 035.4336 deg RA of node: 213.7284 deg Eccentricity: 0.0001277 Arg of perigee: 108.4604 deg Mean anomaly: 251.6251 deg Mean motion: 15.07631276 rev/day Decay rate: 1.269e-05 rev/day^2 Epoch rev: 29181 Checksum: 290
Satellite: MAST Catalog number: 31126 Epoch time: 12179.95707179 Element set: 0499 Inclination: 097.8731 deg RA of node: 190.4275 deg Eccentricity: 0.0095038 Arg of perigee: 077.1200 deg Mean anomaly: 284.0596 deg Mean motion: 14.54177465 rev/day Decay rate: 2.59e-06 rev/day^2 Epoch rev: 27583 Checksum: 333
Satellite: CAPE1 Catalog number: 31130 Epoch time: 12179.58886372 Element set: 0503 Inclination: 097.8823 deg RA of node: 186.4561 deg Eccentricity: 0.0102916 Arg of perigee: 091.3617 deg Mean anomaly: 269.9387 deg Mean motion: 14.52960476 rev/day Decay rate: 3.17e-06 rev/day^2 Epoch rev: 27528 Checksum: 330
Satellite: COMPASS Catalog number: 32787 Epoch time: 12179.72234924 Element set: 339 Inclination: 097.7978 deg RA of node: 240.8243 deg Eccentricity: 0.0015921 Arg of perigee: 030.1381 deg Mean anomaly: 330.0758 deg Mean motion: 14.84050775 rev/day Decay rate: 6.20e-06 rev/day^2 Epoch rev: 22537 Checksum: 302
Satellite: AAUSAT2 Catalog number: 32788 Epoch time: 12179.82449981 Element set: 331 Inclination: 097.8024 deg RA of node: 241.3136 deg Eccentricity: 0.0015798 Arg of perigee: 030.5398 deg Mean anomaly: 329.6678 deg Mean motion: 14.84379323 rev/day Decay rate: 1.026e-05 rev/day^2 Epoch rev: 22541 Checksum: 326
Satellite: DO-64 Catalog number: 32789 Epoch time: 12180.19792601 Element set: 347 Inclination: 097.8105 deg RA of node: 243.7404 deg Eccentricity: 0.0015171 Arg of perigee: 025.7296 deg Mean anomaly: 334.4670 deg Mean motion: 14.85899748 rev/day Decay rate: 1.418e-05 rev/day^2 Epoch rev: 22551 Checksum: 328
Satellite: CO-66 Catalog number: 32791 Epoch time: 12179.71612938 Element set: 0333 Inclination: 097.7992 deg RA of node: 240.5525 deg Eccentricity: 0.0016235 Arg of perigee: 030.1380 deg Mean anomaly: 330.0765 deg Mean motion: 14.83458241 rev/day Decay rate: 2.55e-06 rev/day^2 Epoch rev: 22530 Checksum: 296
Satellite: RS-30 Catalog number: 32953 Epoch time: 12179.83379813 Element set: 0908 Inclination: 082.5034 deg RA of node: 288.5175 deg Eccentricity: 0.0017459 Arg of perigee: 285.4771 deg Mean anomaly: 074.4385 deg Mean motion: 12.43024897 rev/day Decay rate: 1.0e-07 rev/day^2 Epoch rev: 18588 Checksum: 335
Satellite: TACSAT-3 Catalog number: 35001 Epoch time: 12121.72616188 Element set: 0001 Inclination: 040.4259 deg RA of node: 351.8840 deg Eccentricity: 0.0007146 Arg of perigee: 275.2650 deg Mean anomaly: 085.0693 deg Mean motion: 16.45157000 rev/day Decay rate: 1.5204951e-01 rev/day^2 Epoch rev: 16699 Checksum: 280
Satellite: PHARMSAT Catalog number: 35002 Epoch time: 12179.88257777 Element set: 0955 Inclination: 040.4549 deg RA of node: 358.6355 deg Eccentricity: 0.0011826 Arg of perigee: 322.7559 deg Mean anomaly: 037.2441 deg Mean motion: 15.88242503 rev/day Decay rate: 1.17694e-03 rev/day^2 Epoch rev: 17602 Checksum: 321
Satellite: METEOR-M Catalog number: 35865 Epoch time: 12179.77509445 Element set: 0539 Inclination: 098.6540 deg RA of node: 233.9025 deg Eccentricity: 0.0003096 Arg of perigee: 036.5275 deg Mean anomaly: 323.6114 deg Mean motion: 14.21864770 rev/day Decay rate: -2.7e-07 rev/day^2 Epoch rev: 14410 Checksum: 298
Satellite: RS-38 Catalog number: 35869 Epoch time: 12180.21683797 Element set: 547 Inclination: 098.6490 deg RA of node: 234.3293 deg Eccentricity: 0.0005202 Arg of perigee: 029.4334 deg Mean anomaly: 330.7128 deg Mean motion: 14.22076153 rev/day Decay rate: 1.3e-07 rev/day^2 Epoch rev: 14418 Checksum: 297
Satellite: JUGNU Catalog number: 37839 Epoch time: 12180.33590576 Element set: 174 Inclination: 019.9628 deg RA of node: 290.7146 deg Eccentricity: 0.0019060 Arg of perigee: 347.7570 deg Mean anomaly: 012.2371 deg Mean motion: 14.12064068 rev/day Decay rate: 6.19e-06 rev/day^2 Epoch rev: 3682 Checksum: 297
